| time (UTC) | temp C | wind direction | speed KPH | gust KPH | rain 1hr cm | rain 24hr cm | rain mn cm | humidity % | barometer mb |
| 20260505041558 | 13 | 178 | 1.6 | 12.9 | 0.00 | 0.00 | 0.00 | 63 | 1010.7 |
| 20260505041026 | 13 | 205 | 3.2 | 12.9 | 0.00 | 0.00 | 0.00 | 62 | 1010.6 |
| 20260505040530 | 13 | 198 | 1.6 | 9.7 | 0.00 | 0.00 | 0.00 | 62 | 1010.6 |
| 20260505040042 | 13 | 198 | 3.2 | 8.0 | 0.00 | 0.00 | 0.00 | 61 | 1010.6 |
| 20260505035527 | 13 | 207 | 1.6 | 8.0 | 0.00 | 0.00 | 0.00 | 61 | 1010.5 |
| 20260505035028 | 13 | 0 | 1.6 | 8.0 | 0.00 | 0.00 | 0.00 | 60 | 1010.5 |
| 20260505034548 | 13 | 145 | 3.2 | 8.0 | 0.00 | 0.00 | 0.00 | 60 | 1010.6 |
| 20260505034026 | 13 | 150 | 3.2 | 8.0 | 0.00 | 0.00 | 0.00 | 60 | 1010.5 |
| 20260505033529 | 14 | 176 | 1.6 | 8.0 | 0.00 | 0.00 | 0.00 | 59 | 1010.5 |
| 20260505033045 | 14 | 0 | 3.2 | 9.7 | 0.00 | 0.00 | 0.00 | 59 | 1010.4 |
| 20260505032552 | 14 | 0 | 1.6 | 9.7 | 0.00 | 0.00 | 0.00 | 59 | 1010.5 |
| 20260505032030 | 14 | 257 | 1.6 | 9.7 | 0.00 | 0.00 | 0.00 | 59 | 1010.4 |
| 20260505031542 | 14 | 231 | 1.6 | 12.9 | 0.00 | 0.00 | 0.00 | 58 | 1010.4 |
| 20260505031026 | 14 | 180 | 3.2 | 12.9 | 0.00 | 0.00 | 0.00 | 57 | 1010.4 |
| 20260505030527 | 14 | 189 | 3.2 | 17.7 | 0.00 | 0.00 | 0.00 | 57 | 1010.4 |
| 20260505030042 | 14 | 203 | 3.2 | 17.7 | 0.00 | 0.00 | 0.00 | 57 | 1010.4 |
| 20260505025529 | 14 | 177 | 1.6 | 8.0 | 0.00 | 0.00 | 0.00 | 56 | 1010.4 |
| 20260505025025 | 15 | 205 | 1.6 | 9.7 | 0.00 | 0.00 | 0.00 | 56 | 1010.4 |
| 20260505024546 | 15 | 237 | 1.6 | 16.1 | 0.00 | 0.00 | 0.00 | 55 | 1010.4 |
| 20260505024028 | 15 | 244 | 4.8 | 16.1 | 0.00 | 0.00 | 0.00 | 55 | 1010.4 |
| 20260505023525 | 15 | 225 | 1.6 | 11.3 | 0.00 | 0.00 | 0.00 | 54 | 1010.6 |
| 20260505023046 | 15 | 198 | 1.6 | 9.7 | 0.00 | 0.00 | 0.00 | 54 | 1010.5 |
| 20260505022530 | 15 | 198 | 1.6 | 14.5 | 0.00 | 0.00 | 0.00 | 54 | 1010.5 |
| 20260505022028 | 15 | 30 | 3.2 | 14.5 | 0.00 | 0.00 | 0.00 | 53 | 1010.5 |
| 20260505021547 | 15 | 182 | 4.8 | 11.3 | 0.00 | 0.00 | 0.00 | 53 | 1010.5 |
| 20260505021026 | 15 | 174 | 3.2 | 12.9 | 0.00 | 0.00 | 0.00 | 53 | 1010.5 |
| 20260505020528 | 15 | 194 | 1.6 | 12.9 | 0.00 | 0.00 | 0.00 | 52 | 1010.4 |
| 20260505020045 | 15 | 169 | 3.2 | 12.9 | 0.00 | 0.00 | 0.00 | 52 | 1010.5 |
| 20260505015526 | 15 | 180 | 3.2 | 11.3 | 0.00 | 0.00 | 0.00 | 51 | 1010.4 |
| 20260505015028 | 15 | 213 | 3.2 | 16.1 | 0.00 | 0.00 | 0.00 | 51 | 1010.4 |
| 20260505014545 | 16 | 139 | 3.2 | 16.1 | 0.00 | 0.00 | 0.00 | 51 | 1010.4 |
| 20260505014026 | 16 | 208 | 3.2 | 16.1 | 0.00 | 0.00 | 0.00 | 51 | 1010.5 |
| 20260505013532 | 16 | 262 | 1.6 | 19.3 | 0.00 | 0.00 | 0.00 | 51 | 1010.4 |
| 20260505013041 | 16 | 207 | 1.6 | 19.3 | 0.00 | 0.00 | 0.00 | 51 | 1010.2 |
| 20260505012528 | 16 | 165 | 1.6 | 9.7 | 0.00 | 0.00 | 0.00 | 50 | 1010.3 |
| 20260505012029 | 16 | 217 | 1.6 | 11.3 | 0.00 | 0.00 | 0.00 | 50 | 1010.1 |
| 20260505011542 | 16 | 249 | 3.2 | 11.3 | 0.00 | 0.00 | 0.00 | 49 | 1010.1 |
| 20260505011029 | 16 | 123 | 3.2 | 9.7 | 0.00 | 0.00 | 0.00 | 49 | 1010.0 |
| 20260505010528 | 16 | 207 | 3.2 | 8.0 | 0.00 | 0.00 | 0.00 | 49 | 1009.9 |
| 20260505010042 | 16 | 201 | 1.6 | 11.3 | 0.00 | 0.00 | 0.00 | 49 | 1009.9 |
| 20260505005528 | 16 | 184 | 1.6 | 16.1 | 0.00 | 0.00 | 0.00 | 48 | 1009.7 |
| 20260505005028 | 17 | 224 | 3.2 | 16.1 | 0.00 | 0.00 | 0.00 | 48 | 1009.7 |
| 20260505004545 | 17 | 208 | 1.6 | 20.9 | 0.00 | 0.00 | 0.00 | 48 | 1009.6 |
| 20260505004027 | 17 | 279 | 3.2 | 20.9 | 0.00 | 0.00 | 0.00 | 48 | 1009.5 |
| 20260505003530 | 17 | 219 | 3.2 | 14.5 | 0.00 | 0.00 | 0.00 | 47 | 1009.3 |
| 20260505003041 | 17 | 207 | 1.6 | 14.5 | 0.00 | 0.00 | 0.00 | 47 | 1009.2 |
| 20260505002531 | 17 | 227 | 3.2 | 16.1 | 0.00 | 0.00 | 0.00 | 47 | 1009.0 |
| 20260505002029 | 17 | 219 | 3.2 | 17.7 | 0.00 | 0.00 | 0.00 | 47 | 1008.8 |
| 20260505001549 | 17 | 201 | 3.2 | 17.7 | 0.00 | 0.00 | 0.00 | 46 | 1008.7 |
| 20260505001028 | 17 | 86 | 3.2 | 14.5 | 0.00 | 0.00 | 0.00 | 46 | 1008.7 |
| 20260505000528 | 17 | 175 | 4.8 | 14.5 | 0.00 | 0.00 | 0.00 | 45 | 1008.5 |
| 20260505000049 | 18 | 327 | 3.2 | 20.9 | 0.00 | 0.00 | 0.00 | 45 | 1008.4 |
| 20260504235528 | 18 | 134 | 3.2 | 20.9 | 0.00 | 0.00 | 0.00 | 44 | 1008.1 |
| 20260504235029 | 18 | 169 | 3.2 | 16.1 | 0.00 | 0.00 | 0.00 | 44 | 1008.1 |
| 20260504234538 | 18 | 196 | 4.8 | 16.1 | 0.00 | 0.00 | 0.00 | 44 | 1008.0 |
| 20260504234028 | 18 | 232 | 6.4 | 16.1 | 0.00 | 0.00 | 0.00 | 43 | 1007.9 |
| 20260504233528 | 18 | 103 | 3.2 | 16.1 | 0.00 | 0.00 | 0.00 | 42 | 1007.9 |
| 20260504233046 | 19 | 281 | 4.8 | 16.1 | 0.00 | 0.00 | 0.00 | 41 | 1007.9 |
| 20260504232529 | 19 | 16 | 4.8 | 16.1 | 0.00 | 0.00 | 0.00 | 41 | 1007.5 |
| 20260504232028 | 19 | 191 | 3.2 | 17.7 | 0.00 | 0.00 | 0.00 | 41 | 1007.6 |
| 20260504231556 | 20 | 214 | 3.2 | 17.7 | 0.00 | 0.00 | 0.00 | 40 | 1007.5 |
| 20260504231031 | 20 | 190 | 4.8 | 14.5 | 0.00 | 0.00 | 0.00 | 39 | 1007.4 |
| 20260504230529 | 20 | 211 | 4.8 | 14.5 | 0.00 | 0.00 | 0.00 | 38 | 1007.3 |
| 20260504230043 | 20 | 213 | 4.8 | 17.7 | 0.00 | 0.00 | 0.00 | 38 | 1007.0 |
| 20260504225528 | 20 | 233 | 3.2 | 17.7 | 0.00 | 0.00 | 0.00 | 37 | 1007.0 |
| 20260504225029 | 20 | 263 | 4.8 | 17.7 | 0.00 | 0.00 | 0.00 | 35 | 1007.0 |
| 20260504224541 | 21 | 260 | 3.2 | 11.3 | 0.00 | 0.00 | 0.00 | 34 | 1006.9 |
| 20260504224032 | 21 | 159 | 1.6 | 9.7 | 0.00 | 0.00 | 0.00 | 34 | 1006.8 |
| 20260504223534 | 21 | 184 | 1.6 | 9.7 | 0.00 | 0.00 | 0.00 | 34 | 1006.8 |
| 20260504223040 | 21 | 190 | 1.6 | 9.7 | 0.00 | 0.00 | 0.00 | 33 | 1006.6 |
| 20260504222528 | 21 | 155 | 1.6 | 9.7 | 0.00 | 0.00 | 0.00 | 34 | 1006.7 |
| 20260504222028 | 21 | 292 | 3.2 | 9.7 | 0.00 | 0.00 | 0.00 | 32 | 1006.8 |
| 20260504221556 | 21 | 0 | 3.2 | 11.3 | 0.00 | 0.00 | 0.00 | 32 | 1006.7 |
| 20260504221026 | 21 | 140 | 3.2 | 11.3 | 0.00 | 0.00 | 0.00 | 33 | 1006.7 |
| 20260504220529 | 21 | 254 | 0.0 | 6.4 | 0.00 | 0.00 | 0.00 | 33 | 1006.7 |
| 20260504220045 | 21 | 189 | 1.6 | 6.4 | 0.00 | 0.00 | 0.00 | 32 | 1006.6 |
| 20260504215529 | 22 | 202 | 1.6 | 8.0 | 0.00 | 0.00 | 0.00 | 32 | 1006.7 |
| 20260504215033 | 22 | 287 | 1.6 | 11.3 | 0.00 | 0.00 | 0.00 | 33 | 1006.6 |
| 20260504214543 | 22 | 151 | 3.2 | 19.3 | 0.00 | 0.00 | 0.00 | 32 | 1006.7 |
| 20260504214033 | 22 | 116 | 4.8 | 22.5 | 0.00 | 0.00 | 0.00 | 32 | 1006.7 |
| 20260504213529 | 22 | 196 | 4.8 | 22.5 | 0.00 | 0.00 | 0.00 | 32 | 1006.7 |
| 20260504213040 | 22 | 163 | 3.2 | 20.9 | 0.00 | 0.00 | 0.00 | 32 | 1006.7 |
| 20260504212532 | 22 | 109 | 4.8 | 16.1 | 0.00 | 0.00 | 0.00 | 31 | 1006.7 |
| 20260504212025 | 22 | 0 | 3.2 | 16.1 | 0.00 | 0.00 | 0.00 | 31 | 1006.7 |
| 20260504211548 | 22 | 163 | 3.2 | 16.1 | 0.00 | 0.00 | 0.00 | 30 | 1006.7 |
| 20260504211027 | 22 | 229 | 3.2 | 14.5 | 0.00 | 0.00 | 0.00 | 32 | 1006.7 |
| 20260504210528 | 22 | 347 | 3.2 | 14.5 | 0.00 | 0.00 | 0.00 | 31 | 1006.6 |
| 20260504210104 | 22 | 170 | 3.2 | 12.9 | 0.00 | 0.00 | 0.00 | 31 | 1006.8 |
| 20260504205528 | 22 | 269 | 3.2 | 12.9 | 0.00 | 0.00 | 0.00 | 31 | 1006.6 |
| 20260504205025 | 22 | 186 | 3.2 | 12.9 | 0.00 | 0.00 | 0.00 | 30 | 1006.7 |
| 20260504204548 | 22 | 253 | 3.2 | 9.7 | 0.00 | 0.00 | 0.00 | 31 | 1006.7 |
| 20260504204029 | 22 | 198 | 3.2 | 14.5 | 0.00 | 0.00 | 0.00 | 31 | 1006.6 |
| 20260504203529 | 22 | 177 | 4.8 | 17.7 | 0.00 | 0.00 | 0.00 | 29 | 1006.6 |
| 20260504203048 | 22 | 0 | 4.8 | 17.7 | 0.00 | 0.00 | 0.00 | 29 | 1006.7 |
| 20260504202526 | 22 | 105 | 3.2 | 11.3 | 0.00 | 0.00 | 0.00 | 31 | 1007.0 |
| 20260504202027 | 22 | 147 | 3.2 | 14.5 | 0.00 | 0.00 | 0.00 | 29 | 1006.9 |
| 20260504201548 | 22 | 144 | 4.8 | 17.7 | 0.00 | 0.00 | 0.00 | 30 | 1006.9 |
| 20260504201029 | 22 | 36 | 4.8 | 17.7 | 0.00 | 0.00 | 0.00 | 29 | 1006.9 |
| 20260504200529 | 22 | 203 | 4.8 | 17.7 | 0.00 | 0.00 | 0.00 | 28 | 1006.9 |
| 20260504200042 | 22 | 279 | 3.2 | 17.7 | 0.00 | 0.00 | 0.00 | 29 | 1006.9 |
| 20260504195526 | 22 | 219 | 1.6 | 19.3 | 0.00 | 0.00 | 0.00 | 30 | 1006.8 |
| 20260504195027 | 22 | 203 | 4.8 | 19.3 | 0.00 | 0.00 | 0.00 | 29 | 1007.0 |
| 20260504194557 | 22 | 64 | 3.2 | 16.1 | 0.00 | 0.00 | 0.00 | 29 | 1006.9 |
| 20260504194027 | 22 | 225 | 3.2 | 16.1 | 0.00 | 0.00 | 0.00 | 29 | 1006.9 |
| 20260504193525 | 22 | 174 | 6.4 | 17.7 | 0.00 | 0.00 | 0.00 | 28 | 1006.8 |
| 20260504193044 | 22 | 49 | 4.8 | 20.9 | 0.00 | 0.00 | 0.00 | 30 | 1006.8 |
| 20260504192525 | 22 | 0 | 4.8 | 24.1 | 0.00 | 0.00 | 0.00 | 30 | 1006.8 |
| 20260504192029 | 22 | 324 | 4.8 | 24.1 | 0.00 | 0.00 | 0.00 | 29 | 1006.8 |
| 20260504191547 | 22 | 134 | 6.4 | 24.1 | 0.00 | 0.00 | 0.00 | 29 | 1006.8 |
| 20260504191027 | 22 | 202 | 4.8 | 22.5 | 0.00 | 0.00 | 0.00 | 29 | 1006.9 |
| 20260504190532 | 22 | 192 | 6.4 | 22.5 | 0.00 | 0.00 | 0.00 | 29 | 1006.9 |
| 20260504190057 | 22 | 5 | 6.4 | 24.1 | 0.00 | 0.00 | 0.00 | 30 | 1007.0 |
| 20260504185530 | 22 | 140 | 3.2 | 24.1 | 0.00 | 0.00 | 0.00 | 29 | 1007.1 |
| 20260504185031 | 22 | 67 | 4.8 | 16.1 | 0.00 | 0.00 | 0.00 | 29 | 1007.2 |
| 20260504184551 | 22 | 84 | 3.2 | 16.1 | 0.00 | 0.00 | 0.00 | 29 | 1007.2 |
| 20260504184026 | 22 | 180 | 4.8 | 17.7 | 0.00 | 0.00 | 0.00 | 31 | 1007.1 |
| 20260504183530 | 22 | 138 | 4.8 | 25.7 | 0.00 | 0.00 | 0.00 | 29 | 1007.1 |
| 20260504183041 | 22 | 244 | 6.4 | 25.7 | 0.00 | 0.00 | 0.00 | 31 | 1007.2 |
| 20260504182527 | 22 | 219 | 4.8 | 20.9 | 0.00 | 0.00 | 0.00 | 31 | 1007.3 |
| 20260504182026 | 21 | 214 | 4.8 | 20.9 | 0.00 | 0.00 | 0.00 | 29 | 1007.4 |
| 20260504181547 | 21 | 232 | 4.8 | 20.9 | 0.00 | 0.00 | 0.00 | 31 | 1007.2 |
| 20260504181029 | 21 | 56 | 3.2 | 24.1 | 0.00 | 0.00 | 0.00 | 31 | 1007.5 |
| 20260504180529 | 21 | 165 | 8.0 | 24.1 | 0.00 | 0.00 | 0.00 | 30 | 1007.6 |
| 20260504180114 | 21 | 44 | 6.4 | 22.5 | 0.00 | 0.00 | 0.00 | 30 | 1007.4 |
| 20260504175528 | 21 | 222 | 4.8 | 19.3 | 0.00 | 0.00 | 0.00 | 32 | 1007.5 |
| 20260504175031 | 21 | 205 | 6.4 | 20.9 | 0.00 | 0.00 | 0.00 | 31 | 1007.5 |
| 20260504174551 | 21 | 140 | 4.8 | 20.9 | 0.00 | 0.00 | 0.00 | 32 | 1007.7 |
| 20260504174030 | 21 | 227 | 4.8 | 14.5 | 0.00 | 0.00 | 0.00 | 31 | 1007.8 |
| 20260504173530 | 21 | 238 | 4.8 | 20.9 | 0.00 | 0.00 | 0.00 | 30 | 1008.0 |
| 20260504173100 | 21 | 209 | 3.2 | 22.5 | 0.00 | 0.00 | 0.00 | 32 | 1008.1 |
| 20260504172532 | 21 | 346 | 4.8 | 22.5 | 0.00 | 0.00 | 0.00 | 31 | 1007.8 |
| 20260504172030 | 21 | 209 | 6.4 | 19.3 | 0.00 | 0.00 | 0.00 | 32 | 1007.7 |
| 20260504171542 | 21 | 328 | 6.4 | 22.5 | 0.00 | 0.00 | 0.00 | 31 | 1007.8 |
| 20260504171030 | 21 | 236 | 3.2 | 22.5 | 0.00 | 0.00 | 0.00 | 33 | 1007.5 |
| 20260504170532 | 21 | 219 | 3.2 | 17.7 | 0.00 | 0.00 | 0.00 | 32 | 1007.7 |
| 20260504151032 | 20 | 184 | 4.8 | 19.3 | 0.00 | 0.00 | 0.00 | 33 | 1008.7 |
| 20260504150530 | 20 | 251 | 6.4 | 16.1 | 0.00 | 0.00 | 0.00 | 35 | 1008.7 |
| 20260504141032 | 18 | 273 | 3.2 | 25.7 | 0.00 | 0.00 | 0.00 | 37 | 1009.4 |
| 20260504140527 | 18 | 184 | 3.2 | 25.7 | 0.00 | 0.00 | 0.00 | 38 | 1009.4 |
| 20260504130529 | 16 | 302 | 3.2 | 14.5 | 0.00 | 0.00 | 0.00 | 41 | 1010.2 |
| 20260504120109 | 12 | 211 | 4.8 | 17.7 | 0.00 | 0.00 | 0.00 | 50 | 1010.5 |
| 20260504110528 | 8 | 0 | 0.0 | 4.8 | 0.00 | 0.00 | 0.00 | 62 | 1010.6 |
| 20260504100529 | 7 | 0 | 0.0 | 3.2 | 0.00 | 0.00 | 0.00 | 60 | 1010.6 |
| 20260504081538 | 7 | 0 | 0.0 | 3.2 | 0.00 | 0.00 | 0.00 | 63 | 1010.4 |
| 20260504081028 | 7 | 0 | 0.0 | 4.8 | 0.00 | 0.00 | 0.00 | 63 | 1010.4 |
| 20260504080529 | 7 | 169 | 0.0 | 4.8 | 0.00 | 0.00 | 0.00 | 63 | 1010.4 |
| 20260504050526 | 4 | 0 | 0.0 | 0.0 | 0.00 | 0.00 | 0.00 | 64 | 1010.4 |
| 20260504050110 | 4 | 0 | 0.0 | 0.0 | 0.00 | 0.00 | 0.00 | 64 | 1010.3 |